Location: Lake Arresoe
(56.0000°N, 12.5000°E)
Time: 22:33:39
(UTC+02:00)

Okean 3 - Visible Passes

Search period start: 16 September 2019 00:00
Search period end: 26 September 2019 00:00
Orbit: 576 x 602 km, 82.5° (Epoch: 16 September)

Date Brightness Start Highest point End Pass type
(mag) Time Alt. Az. Time Alt. Az. Time Alt. Az.
20 Sep 6.8 05:14:24 10° ESE 05:16:12 13° E 05:17:59 10° NE visible
21 Sep 6.5 05:21:13 10° ESE 05:23:55 17° E 05:26:38 10° NE visible
22 Sep 6.2 05:28:24 10° SE 05:31:40 22° E 05:34:58 10° NE visible
23 Sep 5.6 05:35:48 10° SSE 05:39:28 30° E 05:43:10 10° NNE visible
24 Sep 5.0 05:43:20 10° SSE 05:47:17 40° E 05:51:16 10° NNE visible
25 Sep 4.3 05:51:02 10° S 05:55:08 55° E 05:59:19 10° NNE visible
